Orbital Elements at Epoch 2459200.5 (2020-Dec-17.0) TDB
Reference: JPL 15 (heliocentric ecliptic J2000)
Element | Value | Uncertainty (1-sigma) | Units |
e | .05453527100972796 | 5.0357e-08 | |
a | 3.117015372248308 | 2.8525e-08 | au |
q | 2.947028094181258 | 1.5421e-07 | au |
i | 10.53655312550434 | 4.5992e-06 | deg |
node | 151.7629532268124 | 3.7681e-05 | deg |
peri | 311.1311217937532 | 7.2436e-05 | deg |
M | 162.6154329217113 | 6.224e-05 | deg |
tp | 2458292.541284193209 (2018-Jun-23.04128419) | 0.00034489 | TDB |
period | 2010.049918495799 5.50 | 2.7592e-05 7.554e-08 | d yr |
n | .1791000296497126 | 2.4585e-09 | deg/d |
Q | 3.287002650315358 | 3.008e-08 | au |
|
| | Orbit Determination Parameters
Additional Information
|